Regional Weather Roundup
Issued by NWS

Home | Current Version | Previous Version | Text Only | Print | Product List | Glossary Off
Versions: 1 2 3 4 5 6 7 8 9 10 11 12 13 14 15 16 17 18 19 20 21 22 23 24 25 26 27 28 29 30 31 32 33 34 35 36 37 38 39 40 41 42 43 44 45 46 47 48 49 50

000
ASUS43 KDMX 311104
RWRIA

WEATHER ROUNDUP FOR IOWA
NATIONAL WEATHER SERVICE DES MOINES IA
  ISSUED BY NWS QUAD CITIES IA IL
500 AM CST SAT JAN 31 2015

NOTE: "FAIR" INDICATES FEW OR NO CLOUDS BELOW 12,000 FEET WITH NO
SIGNIFICANT WEATHER AND/OR OBSTRUCTIONS TO VISIBILITY.

* - THESE STATIONS ARE NOT NWS STATIONS...THUS NOT UNDER NWS
QUALITY CONTROL.  THEY ALSO DO NOT REPORT WEATHER SUCH
AS PRECIPITATION OR FOG.

IAZ001>003-012>014-020>022-031>034-043>046-311200-
   NORTHWEST IOWA

CITY           SKY/WX    TMP DP  RH WIND       PRES   REMARKS
CARROLL *      CLOUDY    32  28  86 SW14      30.15S WCI  22
CHEROKEE *     PTSUNNY   31  28  90 CALM      30.13S
DENNISON *     CLOUDY    34  32  93 S7        30.14S WCI  28
LE MARS *      CLOUDY    30  28  93 S7        30.12F WCI  23
ORANGE CITY *  MOCLDY    28  25  86 S5        30.10F WCI  23
SIOUX CITY     CLOUDY    30  26  85 E7        30.13S WCI  23
SPENCER        MOCLDY    28  23  81 W3        30.12S
$$

IAZ055>058-069>071-079>083-090>094-311200-
   SOUTHWEST IOWA

CITY           SKY/WX    TMP DP  RH WIND       PRES   REMARKS
ATLANTIC *     CLOUDY    32  28  86 S8        30.19S WCI  25
AUDUBON *      CLOUDY    32  27  80 SW5       30.18S WCI  27
CLARINDA *     CLOUDY    34  28  80 S3        30.24S
COUNCIL BLFS * CLOUDY    36  34  93 S9        30.17S WCI  29
CRESTON *      CLOUDY    30  25  80 SW10      30.21S WCI  21
HARLAN *       CLOUDY    32  32 100 S6        30.21S WCI  26
LAMONI         CLOUDY    27  20  75 S7        30.23F WCI  19
$$

IAZ047>049-059>061-072>074-084-311200-
   CENTRAL IOWA

CITY           SKY/WX    TMP DP  RH WIND       PRES   REMARKS
AMES           MOCLDY    29  23  78 SW8       30.17F WCI  21
ANKENY *       MOCLDY    30  23  74 SW5       30.20S WCI  25
BOONE *        CLOUDY    30  27  86 SW7       30.15S WCI  23
CHARITON *     CLOUDY    32  23  69 SW10      30.22R WCI  24
DES MOINES     CLOUDY    32  24  72 SW9       30.20S WCI  24
GRINNELL *     CLOUDY    29  22  74 SW10      30.19F WCI  20
KNOXVILLE *    MOCLDY    32  23  69 SW12      30.19F WCI  23
MARSHALLTOWN   PTCLDY    27  20  75 SW10      30.16F WCI  17
PELLA *        MOCLDY    30  23  74 SW8       30.22S WCI  22
PERRY *          N/A     31  28  87 SW3       30.18S
$$

IAZ004>006-015-016-023>025-035-036-311200-
   NORTH CENTRAL IOWA

CITY           SKY/WX    TMP DP  RH WIND       PRES   REMARKS
ALGONA *       PTCLDY    27  25  93 SW8       30.13S WCI  18
CLARION *      CLEAR     23  23 100 S6        30.14F WCI  16
ESTHERVILLE    PTCLDY    26  23  88 W9        30.12R WCI  17
FORT DODGE *   MOCLDY    27  23  86 SW3       30.15S
MASON CITY     CLEAR     26  21  81 W9        30.14S WCI  17
WEBSTER CITY * MOCLDY    27  27 100 SW7       30.13S WCI  19
IOWA FALLS *   FAIR      27  22  82 SW7       30.16S WCI  20
$$

IAZ007>011-017>019-026>030-037>042-050>054-066-311200-
   NORTHEAST IOWA

CITY           SKY/WX    TMP DP  RH WIND       PRES   REMARKS
CEDAR RAPIDS   PTCLDY    25  20  81 S12       30.18F WCI  14
CHARLES CITY * CLEAR     19  18  93 S6        30.14F WCI  11
CLINTON *      PTCLDY    19  14  79 S8        30.25F WCI   9
DECORAH *      PTCLDY    25  18  74 SW7       30.13F WCI  17
DUBUQUE        CLEAR     20  15  81 SW9       30.17S WCI   9
MONTICELLO *   CLEAR     23  19  86 CALM      30.19S
OELWEIN *      CLEAR     19  16  86 S7        30.16F WCI  10
WATERLOO       CLEAR     23  18  81 SW3       30.16S
$$

IAZ064-065-067-068-078-311200-
   EAST CENTRAL IOWA

CITY           SKY/WX    TMP DP  RH WIND       PRES   REMARKS
DAVENPORT      PTCLDY    26  17  68 SW12      30.23F WCI  16
IOWA CITY      PTCLDY    24  20  84 S3        30.23F
MT. PLEASANT * MOCLDY    27  21  79 S10       30.25S WCI  17
MUSCATINE *    PTCLDY    28  21  74 S10       30.25F WCI  19
QUAD CITIES    FAIR      26  18  71 SW7       30.23F WCI  18
$$

IAZ062-063-075>077-085>089-095>099-311200-
   SOUTHEAST IOWA

CITY           SKY/WX    TMP DP  RH WIND       PRES   REMARKS
BURLINGTON     CLOUDY    28  22  78 S9        30.25F WCI  19
FAIRFIELD *    MOCLDY    28  19  69 S8        30.24S WCI  20
FORT MADISON * PTCLDY    28  21  74 S8        30.26F WCI  20
KEOKUK *       MOCLDY    28  23  80 S7        30.26F WCI  21
OTTUMWA        PTCLDY    26  20  77 S7        30.22F WCI  18
WASHINGTON *   CLOUDY    28  25  86 SW9       30.23F WCI  20
$$

ABBREVIATIONS USED IN REMARKS
   TC - TEMPERATURES IN CELSIUS
  WCI - WIND CHILL INDEX
   HX - HEAT INDEX
  VSB - VISIBILITY
$$


USA.gov is the U.S. government's official web portal to all federal, state and local government web resources and services.